Theta_e
351 353 353 351 352 352 352 351 351 352 351 351 351 349 349 348 348 350 351 352 351 352 353 353 353 352 351 350 350 350 350 350 351 350 349 348 348 349 350 350 350 349 349 350 350 350 350 349 348 345 347 351 350 348 348 349 349 348 348 349 349 348 349 348 344 336 335 340 338 336 340 343 342 342 339 340 342 339 337 339 340 340 338 333 327
349 351 352 351 352 352 351 352 353 354 354 353 352 351 351 350 349 350 352 353 352 352 352 352 353 353 352 352 351 350 350 350 350 351 351 349 348 349 350 350 350 349 348 349 350 350 350 350 349 345 344 349 351 349 349 348 350 350 349 349 348 348 349 349 345 338 333 336 338 336 337 340 342 342 339 340 341 340 338 339 339 339 338 333 326
348 349 351 351 352 354 354 354 355 355 355 354 353 352 353 353 352 353 353 354 353 351 350 351 351 352 352 352 352 351 351 351 351 351 351 350 350 350 350 350 349 349 349 350 350 350 350 350 351 348 344 345 349 350 349 348 349 350 350 350 349 348 349 349 348 342 334 332 334 335 336 338 339 338 337 339 341 341 340 340 340 340 338 334 328
351 351 352 354 356 356 356 356 356 355 354 354 354 353 353 355 355 355 354 353 354 352 350 350 350 351 352 353 352 352 352 352 351 351 351 351 351 351 351 350 349 348 349 349 349 349 350 351 351 351 347 344 346 349 350 349 348 347 348 349 349 349 349 349 349 346 339 334 333 333 334 336 337 338 338 338 340 341 341 339 340 340 337 334 328
354 356 356 358 359 358 358 357 356 355 354 353 353 353 354 355 355 355 354 353 353 353 351 350 350 351 352 353 352 352 352 351 351 351 351 351 351 351 351 350 349 348 348 349 349 349 350 351 351 351 350 346 344 346 348 349 348 345 344 345 344 345 347 349 349 347 343 338 335 335 336 335 334 338 340 340 342 343 341 338 339 339 336 332 326
355 357 356 356 358 358 358 357 356 354 354 353 354 354 354 354 353 353 353 352 353 353 352 352 352 353 352 352 352 352 351 351 351 351 350 350 350 350 351 351 349 348 349 349 349 351 351 351 352 351 350 349 347 344 345 347 349 348 346 346 344 340 341 344 347 347 344 341 338 335 338 338 338 341 339 339 343 342 341 340 337 335 332 328 324
354 356 354 353 353 354 355 355 355 355 354 354 354 355 353 352 351 352 352 351 351 352 352 352 352 352 351 351 351 351 351 351 351 351 350 350 350 350 350 350 350 350 350 350 350 351 351 350 352 352 351 350 349 347 345 344 346 348 348 348 348 345 340 336 341 346 347 345 342 337 338 340 342 343 338 337 341 338 337 336 331 329 326 322 322
352 353 353 350 350 351 353 354 354 354 353 353 354 354 352 351 351 351 352 351 351 351 351 351 351 351 350 350 350 350 351 351 351 351 350 350 350 349 349 350 350 350 350 351 351 350 350 350 351 351 351 350 350 349 347 346 346 346 348 348 348 349 347 339 335 338 343 345 343 339 341 342 339 340 342 341 339 336 333 330 325 324 322 320 321
352 352 351 349 350 351 353 354 354 353 352 352 353 353 352 351 350 351 352 351 351 351 352 352 351 350 349 349 348 348 350 350 351 351 351 351 350 349 350 350 350 350 351 351 351 351 350 350 350 350 350 350 350 349 348 347 347 347 346 347 347 347 349 346 338 333 334 334 332 331 333 335 332 334 341 340 334 330 329 324 321 321 322 322 322
353 351 349 350 351 351 353 353 353 353 352 351 352 352 352 351 351 350 351 351 350 350 352 352 350 348 347 348 347 348 349 349 350 351 351 351 351 350 350 349 349 349 350 350 350 352 351 350 349 349 349 349 349 349 348 346 346 348 348 346 346 346 346 346 343 341 339 335 331 327 325 325 324 325 331 331 326 326 325 322 323 325 326 328 329
353 350 349 351 352 352 352 352 353 354 353 352 353 353 352 352 353 352 351 350 350 350 350 350 349 348 347 346 347 348 349 349 349 350 351 351 351 351 350 349 349 349 350 351 351 351 352 351 350 349 349 348 348 348 348 346 344 346 349 348 346 346 346 344 344 345 345 344 342 340 336 331 329 328 329 331 331 331 330 330 330 332 334 336 337
351 349 349 351 352 352 352 352 353 354 353 352 353 353 352 352 353 351 350 350 350 350 350 350 350 348 346 345 347 348 349 349 349 350 351 352 351 351 351 350 350 350 351 351 351 351 351 351 350 349 349 348 347 347 347 346 344 343 344 346 347 346 347 346 345 346 346 347 347 346 346 344 342 341 340 341 341 341 340 340 340 341 341 342 343
350 349 350 351 352 352 352 352 353 353 352 352 352 353 352 352 352 350 349 349 349 350 351 351 350 348 347 346 347 348 348 348 349 350 351 352 352 351 351 351 350 351 351 350 350 351 351 351 350 350 349 348 347 347 346 345 344 343 342 343 344 344 345 345 346 347 347 347 347 347 348 349 349 349 349 349 348 347 347 347 347 347 346 346 346
348 350 352 352 353 353 352 351 353 353 352 352 352 352 351 351 351 350 349 349 349 350 351 351 349 348 347 349 349 349 349 349 350 351 351 351 352 351 351 351 351 351 351 351 350 350 350 351 351 351 352 350 349 348 347 347 346 346 346 344 343 342 341 343 344 346 346 346 347 347 348 348 349 349 350 350 350 350 349 349 349 349 349 349 349
349 353 355 355 355 354 353 352 352 352 352 352 352 350 350 350 350 350 350 349 349 349 350 351 350 349 349 352 353 352 352 350 349 350 350 351 351 351 351 350 351 351 352 351 350 350 350 350 351 352 353 352 352 351 350 350 349 348 348 347 347 345 343 342 342 343 345 345 345 346 347 347 347 348 349 349 349 349 349 350 350 350 351 350 350
353 356 356 356 356 355 354 353 352 351 351 352 352 351 350 349 349 349 349 348 347 348 349 350 351 351 351 353 352 354 358 352 348 350 349 351 351 350 351 351 350 350 350 351 350 351 350 350 351 351 352 352 352 352 352 352 351 350 350 350 350 349 347 346 344 343 343 343 343 343 345 346 346 347 347 348 348 348 349 349 349 349 349 350 350
356 357 356 356 355 354 354 353 352 350 350 352 352 351 351 349 348 348 348 347 345 346 348 348 350 351 350 353 351 354 359 353 350 352 349 350 351 351 351 351 351 350 349 350 350 351 351 350 351 351 351 351 352 352 352 352 351 351 352 352 352 351 350 349 347 346 344 343 343 342 342 343 344 345 345 346 347 348 348 348 348 348 349 349 348
358 357 356 356 354 353 352 351 351 350 350 351 351 351 351 350 349 348 347 346 345 346 345 345 350 351 349 351 350 350 352 350 353 356 351 349 350 351 352 352 352 352 350 350 350 350 350 351 351 351 351 351 351 352 351 351 351 351 352 352 352 353 353 351 350 349 347 345 344 344 343 342 342 343 344 344 345 346 347 347 347 347 347 344 343
358 357 356 354 352 351 351 350 350 350 350 350 350 350 349 348 347 347 345 345 346 344 341 341 345 347 348 350 349 348 348 348 352 354 353 353 350 349 351 352 352 352 351 350 351 350 350 351 351 351 351 351 351 351 351 351 351 351 352 352 351 352 352 352 352 351 350 349 347 346 346 344 343 342 343 344 344 345 345 346 346 346 345 342 341
357 355 354 353 352 350 350 349 349 350 349 348 347 345 345 345 345 345 344 344 343 340 338 338 339 340 343 346 347 347 347 347 348 348 351 357 357 352 349 350 350 351 351 350 350 351 350 351 351 351 351 351 351 352 351 352 352 352 352 352 351 351 352 353 353 353 353 353 353 351 350 349 348 345 344 344 345 345 345 346 345 346 346 345 344
354 354 354 354 352 349 348 348 349 348 346 345 342 341 343 344 343 343 344 343 340 338 338 337 337 337 338 340 340 343 347 348 347 347 348 352 359 360 351 349 350 349 350 350 350 350 350 350 351 351 351 352 352 352 352 352 352 351 352 352 352 352 352 353 354 354 354 354 354 354 353 354 353 351 348 346 347 346 346 346 346 346 347 347 346
354 355 356 354 349 348 348 348 348 346 345 344 341 339 341 342 341 341 341 341 338 338 338 336 336 337 337 338 336 339 347 349 347 347 348 348 353 356 350 349 352 349 347 348 348 349 350 350 351 350 351 351 351 352 352 352 352 352 351 351 352 352 353 353 353 353 353 353 353 354 353 354 354 354 353 350 349 349 348 347 346 346 346 347 347
355 356 355 350 347 348 348 348 348 347 345 343 340 339 339 339 339 339 339 338 337 337 337 337 338 338 338 339 337 336 340 343 342 345 349 349 351 353 349 347 350 348 342 341 344 345 347 348 349 350 350 351 351 351 352 352 352 352 352 351 352 352 352 353 353 354 353 352 353 354 354 354 354 355 354 354 353 352 351 350 349 348 348 347 347
355 355 351 347 348 349 348 347 347 345 343 341 340 340 339 339 340 340 340 339 339 338 337 339 339 339 339 339 339 337 335 336 336 338 345 347 350 353 349 343 345 344 338 338 340 339 341 344 344 345 346 349 350 351 352 352 352 352 353 353 352 352 351 351 352 353 352 353 353 354 355 355 355 355 355 355 355 354 353 352 351 351 351 350 349
354 353 350 348 349 348 346 345 343 340 340 340 341 342 339 339 340 340 340 340 340 340 338 340 340 339 340 339 339 339 337 336 335 335 337 339 343 348 345 338 339 339 336 337 337 334 336 337 337 338 340 345 348 350 351 352 352 352 353 354 353 352 352 351 350 350 350 350 352 353 353 354 355 355 354 354 354 354 353 351 351 352 353 352 352
352 350 350 350 349 347 345 343 340 339 340 340 342 342 340 339 340 339 340 341 341 341 340 340 339 339 339 339 339 339 338 337 336 335 335 335 337 340 339 337 337 336 336 336 334 334 335 333 334 335 337 339 341 343 345 346 347 348 351 355 353 352 353 352 350 351 351 349 349 350 351 352 353 353 353 354 354 353 352 352 351 351 352 352 352
349 348 350 350 347 345 344 343 341 339 340 341 341 342 340 339 339 339 340 341 341 341 339 339 339 339 339 339 339 338 338 338 337 336 335 334 335 335 336 338 340 343 345 340 333 333 334 333 334 334 336 336 334 335 336 338 339 339 345 351 350 349 352 352 349 350 351 351 350 349 349 350 352 352 353 354 353 352 351 352 352 351 351 350 351
347 348 350 351 347 346 345 345 344 342 341 341 340 340 339 340 340 339 340 340 340 339 338 338 339 339 339 339 338 338 338 338 337 336 334 334 334 333 333 335 337 344 348 345 340 336 333 334 335 335 336 335 332 333 333 333 335 336 342 349 348 348 350 348 344 343 345 347 349 348 348 349 350 352 352 353 353 351 350 350 350 350 351 351 350
349 346 347 349 348 347 346 345 344 342 341 340 339 339 340 340 340 340 339 339 341 340 338 339 339 339 339 338 338 338 338 337 335 334 334 333 333 332 332 332 333 337 340 343 343 338 333 334 335 336 336 334 332 333 332 332 334 336 341 345 346 346 343 338 336 336 337 338 339 341 342 345 348 350 352 352 351 350 350 349 349 349 350 351 351
346 343 343 344 344 344 343 342 341 340 340 340 340 340 340 340 339 339 339 339 341 340 338 338 338 338 338 338 338 337 336 335 334 333 333 332 333 332 333 333 333 334 335 338 340 336 333 335 335 335 335 333 332 332 332 332 332 333 335 337 338 337 335 332 332 332 332 333 333 334 335 338 342 347 350 350 348 348 350 351 350 351 352 352 351
340 340 340 341 341 341 341 340 339 338 339 340 340 340 339 339 339 339 339 338 338 336 335 335 335 335 335 335 335 334 334 334 333 333 332 332 333 333 333 333 333 334 333 335 338 337 334 335 335 335 335 333 333 332 332 333 333 334 333 333 333 333 332 332 332 331 331 331 332 332 332 333 335 338 341 344 345 346 348 348 347 348 351 353 351
338 338 340 340 340 340 341 340 339 339 340 340 339 339 339 338 338 337 336 336 336 334 332 334 334 333 333 333 333 333 333 333 333 332 332 333 333 333 333 333 332 333 333 333 337 338 334 334 335 334 334 334 334 335 335 335 336 336 335 335 334 334 333 333 333 332 332 332 332 333 332 332 333 333 334 336 338 339 342 344 345 346 349 351 352
338 338 340 341 341 340 340 340 340 340 340 339 339 339 338 337 335 332 327 327 332 334 332 332 333 332 332 332 333 332 332 332 332 332 332 333 333 332 332 332 332 332 332 332 335 336 334 333 333 333 333 334 334 334 335 335 335 335 335 336 335 335 335 335 334 334 333 333 334 334 334 334 334 334 333 333 334 334 335 338 341 343 345 348 349
341 341 341 341 341 341 340 340 340 340 339 339 339 338 335 332 329 328 323 321 325 331 332 332 332 332 332 332 332 332 332 331 331 332 332 332 331 331 330 330 330 331 331 331 332 334 333 331 330 331 331 331 331 332 332 332 332 332 333 334 334 334 335 335 335 335 335 334 334 335 335 335 335 335 334 334 334 334 334 334 335 338 341 344 346
343 343 343 343 342 341 340 340 340 339 338 338 337 336 333 330 327 327 325 322 320 323 328 331 331 331 331 332 332 331 330 330 330 330 331 331 329 329 329 330 330 330 331 331 330 331 332 330 328 327 327 327 328 328 328 328 328 328 329 331 331 332 333 334 334 335 335 335 334 335 335 335 335 335 335 335 335 335 335 334 334 334 337 341 343
344 343 343 344 343 341 341 340 340 339 337 337 337 335 332 329 328 327 327 325 322 321 325 329 330 330 331 332 331 330 329 329 330 330 330 330 329 329 329 330 330 330 330 330 330 329 330 329 328 327 326 327 326 325 324 324 323 324 324 325 328 331 332 333 334 333 333 333 333 333 334 334 334 335 335 335 335 336 335 335 336 336 338 340 342
345 344 344 343 342 341 341 340 339 338 336 336 336 333 330 329 330 329 326 324 324 324 327 328 328 329 330 330 330 330 329 329 329 330 330 330 330 330 330 330 329 329 329 330 330 329 329 329 329 328 328 328 327 326 324 324 324 324 323 324 327 330 331 331 332 332 332 333 333 333 333 333 334 335 335 335 335 336 336 336 337 337 338 341 343
345 345 343 342 341 341 340 338 337 336 336 335 333 331 330 330 329 326 321 319 321 324 326 326 327 328 329 329 329 330 330 329 328 329 329 330 331 330 329 329 328 327 328 329 329 329 329 329 328 329 328 328 328 327 326 326 325 325 325 326 327 328 328 329 330 330 332 334 335 334 333 334 335 336 336 335 335 336 337 337 338 338 338 339 341
345 345 343 341 340 340 338 335 334 335 335 333 331 330 330 328 324 320 317 318 320 323 325 326 327 328 328 329 330 329 329 329 328 328 329 330 330 328 328 328 327 327 328 328 329 329 329 329 329 329 329 328 328 328 327 327 326 326 327 328 328 327 327 328 329 328 330 332 332 332 333 334 336 336 337 336 336 335 336 337 337 338 339 338 339
344 345 343 340 339 338 335 333 333 334 333 331 330 330 328 324 320 316 317 322 324 324 326 327 327 328 328 328 328 328 329 329 329 330 330 329 329 329 329 329 328 329 329 330 330 330 329 329 329 329 330 329 328 328 327 327 327 327 327 328 328 328 328 329 328 328 328 328 329 330 331 333 335 335 335 335 335 334 334 334 335 336 337 338 338
345 345 342 339 338 337 334 333 333 333 333 332 331 330 326 321 317 314 314 320 325 325 324 325 326 326 326 325 324 325 327 328 328 329 329 329 331 332 332 331 330 330 330 330 330 329 329 329 329 329 329 328 328 328 327 328 327 327 327 328 328 328 328 329 329 328 327 328 329 330 330 332 333 332 332 332 332 332 331 332 333 334 335 336 336
345 346 344 340 338 336 335 335 334 333 334 333 331 329 327 321 317 315 312 312 319 322 320 321 321 321 320 320 320 321 322 323 326 328 329 330 332 331 330 331 331 331 331 331 331 330 330 329 329 329 328 328 328 328 328 328 328 328 328 328 328 328 329 329 328 328 328 328 330 330 329 330 330 329 329 329 330 330 330 330 330 330 331 335 336
345 345 343 340 338 338 338 336 334 333 333 330 326 326 326 323 320 319 313 307 311 316 316 317 317 318 318 318 317 318 319 322 325 327 327 328 328 327 326 327 328 329 330 330 330 330 330 330 330 329 328 328 328 328 328 328 328 328 328 328 328 329 329 328 328 328 328 329 329 328 328 327 327 327 327 327 328 327 327 329 329 327 327 331 334
343 341 339 339 339 338 338 336 334 333 330 326 325 325 325 323 321 320 316 310 309 311 314 315 316 317 317 317 318 320 323 327 328 327 326 326 326 326 327 327 327 326 327 327 327 327 328 330 330 329 329 329 329 329 329 329 329 328 328 328 328 328 328 328 328 328 328 328 328 327 326 325 325 325 326 326 326 326 326 326 327 326 325 328 333
341 339 338 338 338 336 334 334 333 332 328 326 326 325 323 322 321 321 319 316 313 312 313 314 315 316 317 319 323 326 327 330 329 328 327 327 327 327 327 325 324 323 324 325 325 325 327 328 328 328 328 328 328 328 328 328 328 327 327 327 327 327 327 327 327 326 326 326 326 326 325 325 325 325 325 325 325 326 327 327 327 327 327 328 332
338 338 338 337 336 334 334 333 332 330 327 326 327 325 323 323 322 321 321 320 318 316 314 312 312 314 317 320 324 326 328 329 329 328 328 328 327 327 326 324 322 320 321 324 323 323 325 326 326 326 326 326 326 326 326 325 325 325 325 325 325 325 325 324 324 324 324 324 324 325 326 326 325 326 326 325 325 327 328 328 329 329 330 330 332
338 337 337 335 334 333 333 332 329 327 327 327 328 325 324 323 322 322 321 321 320 319 316 311 310 313 316 318 321 325 327 329 328 328 328 328 327 327 325 323 321 319 320 323 323 322 324 324 324 324 324 324 323 323 322 322 322 323 323 323 323 323 324 324 324 324 324 323 324 326 327 326 326 326 326 326 326 328 328 328 329 331 331 332 333
338 336 333 332 332 330 329 328 327 327 327 328 327 325 324 324 323 322 321 321 321 318 312 309 311 315 316 316 319 323 325 327 327 326 326 326 327 325 322 320 319 318 320 323 323 322 322 323 323 322 322 322 321 321 320 321 321 321 322 322 322 323 324 324 324 324 324 324 324 325 327 327 326 327 327 327 328 329 329 328 329 330 332 333 333
334 331 330 329 328 327 327 328 328 327 327 326 326 325 325 323 322 322 321 320 316 311 308 310 314 316 316 316 318 321 322 323 323 323 323 324 324 322 319 318 318 318 321 324 324 322 322 322 322 322 322 323 322 321 321 321 321 321 322 323 323 324 324 325 324 324 324 324 324 325 326 326 327 327 328 328 328 329 329 329 330 331 332 332 332
331 329 328 327 327 326 325 328 329 326 324 324 326 326 325 323 322 320 317 312 308 307 310 313 315 315 315 316 317 319 321 321 320 321 321 321 321 320 318 318 319 320 322 324 325 324 324 324 324 324 324 324 324 323 323 323 323 322 323 324 324 324 325 325 325 325 325 325 326 326 326 326 327 328 328 329 329 328 329 330 332 332 331 331 331
332 329 325 324 326 325 324 326 327 325 325 326 327 327 324 322 319 314 309 307 308 311 314 314 314 316 317 318 318 319 319 320 320 320 321 320 320 320 320 319 320 322 324 324 324 325 325 325 325 325 326 326 325 325 324 324 325 324 324 324 324 325 325 325 325 326 326 326 326 326 327 327 328 328 328 329 330 329 329 330 331 331 330 330 330
Wind_Speed
13 13 14 14 14 14 11 9 8 7 7 7 8 9 10 10 9 8 7 8 8 9 10 10 9 7 6 6 8 9 8 8 8 10 13 15 17 16 15 15 16 17 18 19 20 20 18 17 17 17 17 17 18 19 20 20 20 20 20 20 20 19 18 18 17 18 18 17 17 17 18 17 17 17 16 15 14 14 13 12 12 12 11 10 9
12 14 14 14 14 13 10 7 6 6 6 7 7 9 9 8 7 7 7 8 9 8 10 11 9 8 8 8 8 8 8 9 9 10 12 14 16 16 15 15 16 17 18 20 21 21 20 19 18 18 19 18 18 19 20 21 20 20 21 21 21 19 19 18 18 19 20 19 18 18 18 18 18 18 17 16 15 15 14 13 13 12 12 11 10
9 11 12 12 12 10 7 5 4 5 7 8 7 8 8 8 7 7 8 8 9 8 9 11 10 9 10 10 9 9 9 10 11 10 12 14 16 16 16 16 16 18 19 20 21 21 21 20 20 19 19 19 19 19 20 21 21 20 20 21 21 20 19 19 19 20 21 21 20 20 19 19 19 18 18 17 16 16 15 14 13 13 13 12 11
9 10 11 11 9 7 6 4 4 5 7 8 7 8 8 8 8 8 9 9 9 8 8 10 10 10 12 11 11 10 10 11 12 13 13 14 16 17 16 16 17 18 19 20 22 22 22 21 20 20 20 20 20 20 21 22 21 21 21 21 22 21 21 20 21 22 23 23 22 22 21 21 20 19 18 18 17 17 16 16 14 14 14 13 13
9 10 9 9 8 6 5 4 4 6 7 7 7 7 7 7 8 9 8 8 8 7 7 9 10 10 12 12 11 10 11 13 14 15 14 14 16 18 18 17 18 19 19 21 23 23 23 22 21 21 21 20 21 22 22 22 23 23 22 22 23 23 22 21 22 24 24 25 25 23 22 22 22 20 19 18 17 17 17 17 16 15 15 14 13
8 7 7 7 7 6 5 5 6 7 6 7 7 7 7 7 7 8 7 6 5 6 7 9 10 11 11 11 9 9 12 13 14 15 16 16 16 18 20 19 19 20 21 21 23 23 24 23 22 22 22 21 21 22 23 23 24 24 24 23 23 23 23 23 23 23 24 25 26 25 23 22 22 20 20 20 18 18 18 17 17 16 15 15 14
8 7 6 5 5 5 6 7 8 7 6 7 8 8 8 7 7 7 6 6 4 5 7 9 10 11 11 12 12 12 13 13 13 15 16 16 16 18 20 19 19 21 22 23 23 24 24 24 23 23 22 22 22 22 23 24 24 25 25 25 24 23 23 24 24 24 24 24 26 26 24 22 22 21 22 21 20 20 19 18 18 17 16 16 15
8 8 7 6 6 6 7 8 8 7 6 5 6 7 7 6 6 6 6 6 5 6 7 7 8 9 9 12 13 13 13 13 14 15 15 15 15 16 17 18 19 22 23 23 24 24 24 24 25 24 24 23 23 23 23 23 24 25 25 25 25 24 24 24 24 26 26 25 25 25 23 23 23 23 22 21 21 21 20 19 19 19 18 18 17
8 7 7 6 6 6 7 7 7 6 5 4 4 5 6 7 6 5 7 8 7 7 7 7 7 8 8 10 11 12 13 13 14 14 13 14 15 15 15 16 19 22 24 24 24 25 25 25 25 26 26 25 25 24 24 24 24 25 26 26 26 26 25 24 25 25 26 27 26 25 24 24 25 24 22 22 23 22 21 21 21 20 20 20 19
7 5 5 6 5 5 6 6 5 5 4 3 3 4 5 6 5 5 7 8 8 8 7 7 7 7 6 6 9 12 13 12 12 13 12 14 15 15 15 17 19 22 23 22 22 24 26 26 26 27 27 27 27 26 26 26 26 26 26 27 27 27 27 27 26 25 25 25 26 26 26 26 25 25 24 24 24 24 23 23 22 22 22 22 21
5 4 5 6 5 5 5 5 4 3 3 4 3 3 3 4 4 5 6 6 6 6 5 5 5 5 3 3 6 9 9 8 8 10 12 13 14 15 15 17 19 20 21 20 20 23 26 28 28 27 28 29 29 28 29 29 28 28 27 27 28 28 29 29 28 27 26 26 26 26 26 26 26 26 25 25 25 25 25 24 24 24 23 23 22
4 4 5 5 5 4 4 4 3 2 3 4 4 3 3 3 4 4 4 4 4 4 4 3 4 4 2 2 4 7 8 7 6 8 10 11 12 14 14 16 18 19 20 20 20 21 24 28 29 28 29 29 29 30 30 30 30 30 29 29 28 29 29 30 30 29 29 28 28 28 27 27 27 26 26 27 27 27 26 26 26 25 25 24 23
5 5 4 4 4 4 4 3 2 2 3 4 3 3 3 4 4 3 3 3 4 4 4 3 3 3 1 1 2 3 7 7 7 8 10 11 11 12 14 16 18 19 19 19 19 19 21 24 25 26 28 30 30 31 31 31 31 31 30 30 30 30 31 31 31 31 31 31 31 31 30 30 29 28 28 27 27 27 28 28 27 27 26 26 25
7 5 4 3 3 3 3 2 2 3 3 3 3 2 3 3 3 4 3 3 4 4 4 3 1 1 0 2 3 2 3 5 7 9 12 12 13 13 14 16 18 19 18 17 18 20 21 21 21 22 25 28 30 31 32 32 32 32 32 32 32 32 32 32 32 32 32 33 33 33 33 33 32 31 31 30 30 30 30 29 28 28 27 27 27
8 5 3 2 3 4 3 2 3 3 2 2 2 2 2 3 3 4 5 4 4 4 5 4 2 1 0 1 1 2 0 4 7 10 12 13 14 14 15 17 19 19 18 18 19 20 20 21 22 24 26 27 28 29 30 31 32 33 33 33 34 34 34 34 34 34 34 34 34 34 35 35 35 34 34 34 33 33 32 31 30 30 29 29 28
8 5 3 4 4 5 4 4 4 3 2 2 2 3 4 4 5 5 6 7 6 5 5 5 5 3 1 1 0 1 1 2 6 7 9 12 15 16 17 18 19 20 20 20 21 21 21 21 23 27 29 28 28 28 29 30 30 31 32 33 34 35 36 36 36 36 35 36 36 36 37 36 36 36 36 36 35 34 34 34 33 32 32 31 30
7 5 5 5 5 5 5 4 4 2 2 2 2 4 5 6 7 7 8 7 7 7 7 7 6 5 2 0 1 2 1 2 2 2 5 9 13 15 17 18 19 20 21 22 22 22 23 23 24 27 29 29 29 29 30 30 30 30 32 33 33 34 35 36 37 37 37 37 37 37 38 39 39 38 38 37 36 36 36 36 35 34 34 33 33
6 6 6 7 6 5 5 4 3 2 2 1 3 5 7 8 8 9 8 7 8 9 8 6 5 6 7 5 3 3 2 1 1 1 3 6 10 13 15 17 18 18 20 21 22 23 24 25 26 27 28 29 29 30 30 30 31 31 32 33 33 33 33 34 35 35 36 37 37 38 39 40 40 40 40 39 39 38 38 37 37 36 35 36 36
7 7 7 6 5 4 3 2 2 2 1 3 5 7 7 7 8 8 7 6 7 7 5 5 4 5 6 7 8 8 5 2 1 1 3 4 7 11 14 16 17 18 19 21 22 23 25 26 27 28 29 29 30 30 31 31 32 32 32 32 32 32 32 32 32 32 33 34 35 37 38 40 41 41 42 41 41 40 40 39 38 38 38 38 39
8 7 7 6 4 3 3 3 3 1 2 4 6 7 3 5 6 6 6 4 4 3 4 6 5 5 5 5 7 8 9 7 5 3 1 2 4 6 10 14 16 18 19 21 22 23 25 26 27 28 29 30 31 31 32 33 33 33 33 33 33 32 32 31 31 30 31 32 33 35 37 39 40 42 43 42 42 41 41 41 40 40 39 39 39
7 7 6 5 4 2 4 4 3 3 3 4 6 5 2 7 4 4 6 3 3 3 3 5 5 6 7 6 6 6 7 7 8 7 4 2 3 3 4 6 11 16 19 21 23 24 25 26 27 28 28 29 31 31 32 33 34 35 35 34 34 33 33 32 31 30 30 31 33 35 35 36 38 40 42 42 42 42 42 42 41 41 41 40 40
6 6 6 4 3 4 5 5 3 3 2 3 5 6 4 4 2 1 2 1 2 3 3 4 6 7 9 9 7 6 4 4 6 8 7 4 4 4 4 3 6 10 12 14 17 20 22 25 26 27 27 29 29 30 31 31 33 34 35 35 35 34 34 33 32 31 32 33 35 35 35 36 37 38 39 39 40 41 41 41 41 41 42 41 41
6 5 5 4 6 7 6 4 2 1 1 1 5 7 7 7 6 5 5 3 4 4 4 5 8 9 11 12 9 7 4 2 4 3 5 5 3 3 6 6 6 8 8 7 7 8 12 16 19 22 24 26 27 28 28 29 29 31 33 34 35 34 33 32 32 31 34 37 38 37 36 36 36 36 36 36 37 37 37 38 40 41 42 42 41
7 6 6 7 8 8 6 3 1 1 1 3 6 6 6 7 6 5 5 4 4 5 6 7 8 8 10 12 11 10 7 5 8 7 2 3 3 3 5 6 6 7 7 5 4 5 5 6 8 11 15 19 23 24 25 26 27 28 29 30 31 32 30 29 29 30 34 38 37 36 36 36 36 33 32 33 33 32 33 35 38 39 40 40 40
10 8 9 9 8 7 6 4 2 3 4 4 4 4 4 4 4 4 3 4 4 5 6 8 9 9 9 9 9 11 10 8 8 9 6 3 2 2 3 4 4 5 5 3 4 6 5 5 7 7 7 9 12 15 18 20 22 24 25 26 27 29 29 27 27 27 30 31 31 33 34 35 34 31 30 31 30 30 34 37 37 37 38 38 37
10 8 8 8 7 8 7 5 5 6 5 3 2 2 1 2 3 3 4 4 3 5 7 9 10 10 10 10 10 9 10 9 7 7 6 3 1 2 3 3 5 5 5 4 4 5 5 7 8 7 4 4 5 7 9 11 14 16 18 21 22 22 24 25 26 26 25 25 26 28 31 32 32 31 31 31 30 32 35 35 35 36 37 37 36
8 7 8 7 7 9 8 7 5 5 4 3 2 2 1 3 4 4 4 4 4 6 9 9 10 10 9 10 11 9 9 10 8 7 7 7 7 5 4 3 4 4 3 4 6 7 9 9 9 8 5 3 5 7 7 9 10 10 11 14 15 15 16 18 20 22 24 25 27 26 27 28 29 29 29 27 27 30 31 31 33 35 36 35 34
7 6 7 8 8 9 9 7 5 2 4 4 3 1 1 2 3 4 5 5 7 8 9 8 8 9 9 10 12 10 9 10 10 9 9 10 12 10 8 5 4 3 3 4 4 7 11 11 8 7 5 4 7 8 8 10 10 8 8 9 10 11 11 11 12 14 16 19 23 24 25 26 27 26 25 24 25 27 27 27 29 31 32 32 31
6 6 8 8 9 10 10 7 5 5 6 5 4 3 2 3 5 6 7 6 6 7 9 8 9 9 9 10 12 12 12 11 10 11 11 12 12 13 14 11 5 2 2 3 3 5 11 13 9 7 6 6 7 8 9 10 9 7 7 6 6 5 4 4 6 10 12 12 13 15 18 21 23 26 25 24 25 27 26 26 27 28 28 28 29
8 9 10 10 10 11 11 9 8 8 7 6 5 4 3 4 6 6 7 7 5 7 9 10 10 10 10 10 10 10 11 11 10 11 12 12 12 13 15 16 15 8 1 3 4 5 10 13 10 7 7 8 9 9 9 8 6 5 4 4 3 2 2 3 6 9 12 13 12 13 14 15 17 20 22 24 26 28 28 27 28 29 28 27 27
16 16 16 15 14 13 12 10 8 7 6 6 4 3 3 4 6 7 7 8 7 8 10 10 10 9 9 9 9 10 11 11 10 11 12 12 13 13 14 15 17 15 10 4 1 5 10 14 12 10 10 10 8 7 7 7 5 6 6 4 3 3 4 5 6 8 11 13 14 14 16 16 15 15 16 19 23 26 27 27 28 29 29 29 28
16 15 13 13 12 11 9 8 7 7 5 5 4 3 3 4 7 9 9 8 8 9 11 11 11 10 9 9 9 10 12 12 12 12 12 13 13 13 14 15 16 15 14 10 3 5 10 13 13 13 13 12 10 9 9 9 9 9 10 9 8 7 6 6 6 8 10 12 13 14 15 16 16 16 16 17 18 21 23 25 28 29 30 29 29
13 12 11 10 10 9 9 9 8 7 5 5 4 4 5 6 8 10 11 9 8 8 9 10 11 11 10 9 9 9 11 12 12 11 11 12 14 14 13 14 14 14 13 11 5 4 10 14 15 15 15 14 12 13 12 12 12 11 11 10 10 9 8 8 9 9 9 10 12 13 14 14 15 15 16 17 17 18 19 20 23 26 29 30 30
11 10 9 9 9 9 9 9 8 6 5 5 4 5 6 7 8 10 11 10 9 8 8 8 9 10 9 8 8 9 11 12 12 10 11 12 14 15 14 14 13 12 11 10 7 4 8 14 16 17 18 17 16 15 15 16 16 15 14 13 13 12 11 10 10 10 10 11 12 13 14 14 15 14 14 14 14 16 17 19 20 22 24 26 28
10 9 8 8 7 7 7 7 6 4 3 4 5 5 5 6 8 9 9 10 9 9 8 8 8 9 9 8 7 9 11 12 12 10 10 12 14 15 14 13 13 11 10 10 8 5 6 10 14 16 18 18 18 18 18 18 18 18 17 15 15 15 13 12 12 12 12 13 13 15 16 18 18 16 14 13 12 13 14 17 20 21 21 22 23
8 7 7 6 6 6 7 6 4 3 3 4 4 4 5 6 8 8 8 9 9 8 8 8 8 8 8 7 8 9 10 11 11 10 10 12 14 14 13 13 13 12 11 10 9 7 7 8 11 14 15 16 17 17 18 19 20 20 19 18 16 15 14 13 13 14 15 15 15 15 17 19 20 19 17 16 15 13 11 13 16 18 18 19 20
7 6 6 6 5 5 6 5 3 3 3 2 2 4 5 7 7 7 9 9 8 7 7 8 8 8 8 8 9 10 9 10 11 11 12 13 14 12 12 12 13 14 14 12 11 10 9 11 13 14 14 14 16 17 17 18 20 21 21 18 15 13 13 13 13 14 14 14 14 15 16 17 18 18 17 18 18 15 12 11 12 14 15 15 16
4 4 5 5 4 4 5 4 4 4 3 2 4 5 6 7 6 7 9 9 8 7 6 7 7 6 7 9 10 11 10 10 11 12 13 13 11 10 11 12 14 15 16 15 14 13 13 14 15 16 16 16 16 18 18 18 19 20 20 19 17 16 16 16 16 15 13 13 13 14 16 16 15 14 14 15 16 16 14 12 12 13 14 14 13
2 3 4 4 4 4 4 4 4 3 3 5 5 6 6 6 8 9 10 9 8 7 6 7 7 7 8 10 11 11 11 11 11 13 13 11 10 11 14 16 17 18 18 18 17 15 15 15 16 17 18 18 18 19 20 21 20 19 18 16 18 20 20 18 18 18 17 15 15 15 15 14 12 12 12 12 12 13 13 13 13 13 13 14 14
2 2 2 3 5 5 4 4 4 4 6 7 5 5 5 8 10 11 11 10 9 8 8 8 9 9 10 11 12 11 11 12 13 13 13 13 14 15 15 15 16 17 18 19 18 16 15 16 16 18 19 20 21 21 22 22 20 19 19 16 17 20 20 19 20 21 20 19 18 18 17 14 13 13 13 13 12 12 12 13 13 13 13 13 13
2 2 2 4 6 6 4 2 3 6 9 8 5 4 6 9 12 13 12 9 8 9 9 8 9 10 10 11 12 12 12 13 14 14 14 14 14 13 12 12 12 13 14 16 16 16 17 16 17 18 18 19 21 21 21 21 20 20 21 19 19 20 20 20 21 20 19 18 17 16 16 16 17 18 17 16 15 15 14 14 13 13 14 13 13
3 3 2 3 6 6 3 1 4 10 10 8 6 6 6 8 12 15 15 11 8 8 10 10 10 11 11 12 12 12 13 13 13 13 12 11 10 10 10 10 10 10 11 13 14 15 16 17 18 18 16 17 20 20 20 22 23 22 22 21 19 19 19 19 18 19 17 14 13 15 16 15 18 20 21 20 19 18 18 16 14 13 13 13 12
1 2 2 4 5 4 2 2 7 12 10 6 6 6 7 9 13 17 17 13 9 8 10 11 12 13 13 14 14 14 14 13 12 12 12 12 12 12 12 11 11 10 11 12 14 15 15 16 17 17 16 17 19 20 21 23 23 22 21 19 16 16 16 14 13 14 14 12 13 17 19 19 19 21 22 22 21 21 19 17 16 15 14 13 12
1 2 2 3 2 1 1 5 10 11 7 5 5 7 8 11 15 18 18 16 12 11 11 12 13 14 15 15 15 14 13 12 12 13 13 12 12 12 13 14 14 15 14 15 16 16 16 17 17 17 17 18 20 20 20 20 19 18 17 16 15 15 15 14 14 16 16 15 16 19 22 24 23 21 21 21 21 20 19 18 17 16 14 13 13
4 4 3 3 2 2 4 8 10 8 5 4 4 7 9 12 16 17 17 15 14 14 14 14 14 15 15 15 14 13 14 14 13 11 11 12 12 13 14 16 18 19 19 18 16 15 16 16 17 18 17 17 18 18 17 16 16 16 15 15 16 16 16 17 19 22 22 20 19 20 23 26 23 19 20 21 21 20 19 17 15 15 14 13 13
5 5 5 4 5 5 6 8 8 5 4 3 4 7 10 13 15 14 14 13 12 13 15 16 16 15 14 13 13 14 15 14 11 10 12 14 15 16 17 19 22 22 21 17 14 13 13 13 15 18 17 17 18 19 18 16 17 17 16 16 17 18 19 20 22 25 25 22 20 18 19 23 21 16 17 20 21 21 19 16 14 14 13 12 12
6 7 6 6 7 7 7 7 5 4 3 3 5 8 11 12 11 11 12 12 12 14 16 18 17 15 13 12 12 14 15 13 11 12 15 16 16 18 21 23 25 25 22 16 12 10 9 9 12 15 17 19 19 20 20 19 19 19 19 19 20 20 21 21 22 23 23 21 18 15 15 20 20 15 16 19 19 19 19 17 16 14 11 11 12
7 8 9 8 8 8 6 5 4 5 4 4 7 9 8 8 8 9 11 12 14 16 19 19 16 14 13 12 13 14 15 14 15 17 18 17 18 21 25 26 26 26 20 13 9 8 8 9 12 14 17 18 17 17 17 16 17 17 17 18 19 19 18 17 17 20 20 19 17 15 17 21 19 14 15 17 16 16 18 16 15 13 11 11 11
8 10 10 9 9 8 7 5 5 6 6 7 8 6 5 6 7 9 12 14 17 19 19 18 16 14 14 14 14 15 15 15 16 17 18 19 21 24 27 26 25 24 18 11 9 10 10 12 14 15 16 16 14 13 12 12 12 13 14 17 18 17 15 12 11 14 18 18 15 14 17 18 15 12 15 16 14 15 15 13 11 10 9 9 8
10 9 8 8 7 7 7 6 5 6 8 8 5 3 4 6 8 11 15 17 18 19 18 17 16 16 15 15 14 14 15 16 16 17 19 21 23 25 25 23 22 22 18 12 12 14 14 15 16 17 18 16 13 12 11 11 10 11 13 17 18 16 14 11 10 13 16 17 15 12 14 16 14 12 13 13 13 13 12 9 8 7 8 9 9
7 7 6 7 7 7 7 6 5 6 8 6 2 2 5 8 11 14 17 17 17 17 18 18 18 17 17 17 18 17 17 18 19 20 20 19 20 20 18 16 18 20 18 16 17 18 18 19 20 20 20 18 14 13 12 11 11 11 13 16 17 17 16 15 14 13 9 9 9 6 9 11 11 10 9 7 6 7 7 7 8 10 10 11 11
Wind_Direction
241 232 225 227 235 244 253 258 258 261 270 282 286 283 280 275 271 271 270 271 268 249 238 241 243 248 252 244 240 246 248 242 239 232 222 213 210 212 213 211 216 216 211 207 205 203 201 202 204 203 203 204 201 199 198 196 196 199 200 199 200 202 202 206 219 223 215 210 211 210 209 213 219 221 222 221 224 228 228 226 229 231 232 234 229
243 235 225 228 234 240 248 260 264 269 285 296 293 287 286 284 278 275 275 276 275 256 234 233 234 236 239 238 233 236 245 245 243 237 228 219 212 215 217 214 216 217 213 211 208 205 203 203 205 206 204 205 205 202 202 201 199 202 204 203 203 205 208 210 218 228 227 219 215 214 214 216 220 223 224 225 228 231 232 232 233 234 236 239 237
220 219 216 220 226 231 237 258 276 282 295 299 294 291 292 293 289 287 285 279 276 261 234 228 230 233 238 240 234 224 228 238 238 236 231 223 216 216 220 217 217 218 213 212 211 208 206 205 206 207 206 205 206 205 206 206 204 204 206 207 208 209 212 213 217 227 232 229 224 219 217 220 222 224 227 228 231 233 235 236 236 238 239 242 243
173 182 191 199 209 217 226 248 272 283 294 295 291 292 294 294 291 294 290 278 273 264 240 231 230 233 237 240 239 227 224 231 232 231 229 223 218 217 222 223 222 221 216 211 213 212 209 208 208 208 208 207 207 207 209 209 208 208 210 211 212 214 216 217 219 226 232 232 231 228 224 225 225 226 229 232 234 236 237 238 239 241 242 243 246
162 163 174 187 200 206 216 241 265 280 295 298 291 286 291 291 289 295 291 278 274 266 248 235 228 230 237 243 243 235 233 232 227 228 227 222 219 219 221 224 224 223 219 213 213 214 212 210 209 209 210 210 209 211 212 213 212 212 213 214 217 218 218 220 222 226 230 233 234 234 232 231 230 229 231 234 236 238 240 240 241 243 245 246 248
174 164 168 182 196 202 221 249 271 282 295 300 294 290 292 288 286 289 285 280 276 264 253 241 236 238 239 240 235 231 239 237 225 226 227 223 220 220 221 219 220 223 222 219 216 215 214 212 211 212 212 213 213 214 215 216 217 217 216 217 221 222 222 222 223 226 230 233 235 236 236 235 235 234 235 235 236 239 241 242 244 246 249 251 251
190 196 206 217 221 234 253 266 277 282 291 297 297 299 297 289 284 279 273 273 266 255 253 250 251 253 248 239 231 226 234 235 225 224 223 221 222 224 224 218 216 222 224 223 220 218 216 214 214 214 214 216 217 218 218 219 221 220 220 221 223 225 228 227 224 224 227 230 234 237 236 236 237 237 238 238 238 240 241 243 246 248 250 251 250
209 225 236 245 251 260 267 272 279 283 291 297 297 301 299 294 286 276 275 277 268 256 256 260 262 263 258 251 242 228 228 232 226 222 218 219 224 225 224 219 219 226 226 223 222 221 219 218 218 216 217 219 219 221 222 222 224 223 224 225 225 227 230 233 231 227 227 227 229 233 234 235 237 238 238 238 239 241 242 243 246 247 248 248 248
216 231 241 255 261 268 273 274 281 287 297 298 295 295 296 298 288 270 279 288 283 269 263 270 278 280 274 264 252 229 224 230 227 223 218 216 221 223 222 222 224 230 230 225 222 223 223 222 222 222 221 221 222 223 224 226 228 227 227 228 228 229 230 234 237 234 233 233 232 232 233 234 237 239 239 240 242 244 244 246 248 250 251 252 252
214 233 256 270 264 270 277 274 284 299 309 307 302 298 295 301 296 278 282 291 289 275 266 272 284 291 284 265 252 237 229 227 225 227 224 218 220 224 225 225 226 230 233 231 224 223 226 225 225 226 225 225 226 226 227 228 230 230 231 232 231 231 231 234 237 237 237 238 239 238 237 237 240 242 244 246 249 250 250 251 252 253 254 256 257
214 244 271 277 266 271 274 270 287 312 324 322 327 325 312 303 306 296 287 292 293 281 274 275 284 293 286 249 236 238 237 227 228 234 231 226 225 225 224 223 225 229 233 235 230 226 228 228 226 227 229 229 229 230 231 231 232 232 232 234 234 234 233 234 236 237 237 239 241 242 242 242 242 244 247 249 252 254 255 255 255 256 256 257 258
224 250 268 274 269 272 266 267 291 313 323 330 329 337 349 335 321 311 298 304 313 310 311 305 300 303 295 234 211 229 243 242 243 239 234 234 229 224 223 223 227 232 235 235 234 231 231 230 227 228 232 234 233 234 236 237 237 237 236 235 235 235 235 235 237 238 239 240 241 243 244 244 244 245 246 248 250 252 254 255 255 256 256 256 257
236 244 249 260 266 265 258 268 296 304 318 332 317 317 348 349 336 333 328 329 330 330 331 323 313 318 347 96 146 213 246 247 241 235 235 239 233 226 226 226 228 234 238 237 237 236 233 231 229 230 234 237 237 237 238 240 240 240 239 238 237 236 236 237 238 239 240 241 242 243 244 245 245 245 246 247 248 251 252 253 254 255 256 256 257
240 235 234 249 258 263 267 277 292 298 310 324 316 318 338 334 325 323 324 319 317 326 324 309 294 301 351 77 91 127 246 254 241 234 234 237 237 232 230 231 230 231 236 237 238 238 236 236 234 235 237 239 240 239 239 240 240 240 240 241 240 239 238 238 239 239 240 242 243 244 245 246 247 248 248 248 249 252 253 254 254 255 255 256 257
240 226 226 252 259 265 273 285 291 294 288 284 306 328 330 317 305 302 303 311 316 326 320 297 266 262 187 70 81 117 57 273 253 244 240 241 241 235 230 232 235 234 234 234 237 239 241 242 242 241 242 241 241 241 242 241 241 241 241 242 242 242 241 240 240 240 241 242 243 244 246 248 249 250 250 250 251 253 254 254 255 255 256 256 257
228 221 238 269 268 265 270 284 290 283 245 246 277 305 313 305 294 290 292 309 327 335 327 302 278 283 48 87 123 98 65 254 246 252 249 241 240 235 231 232 235 235 233 232 234 237 241 242 242 242 242 243 242 242 244 245 247 246 244 243 243 243 242 241 241 242 242 243 244 245 246 247 248 249 250 251 251 252 252 253 253 254 255 256 257
215 230 254 270 270 266 270 277 279 265 229 245 288 303 306 296 285 284 283 297 319 325 328 319 290 274 264 157 49 44 324 247 245 259 237 231 234 233 229 229 230 230 231 232 232 234 237 238 238 239 240 242 242 243 246 248 249 249 248 246 245 244 244 244 243 243 243 244 246 247 247 248 248 249 250 251 251 252 252 253 253 254 254 255 257
216 240 255 267 268 262 266 272 260 228 212 265 299 304 308 297 280 278 277 280 299 312 331 340 315 281 264 254 261 261 271 321 4 298 244 229 231 231 231 232 231 230 230 232 234 236 238 238 237 237 238 239 241 243 246 248 249 250 250 249 247 246 245 245 245 245 245 246 248 249 249 249 249 249 250 250 251 251 252 253 254 254 255 256 258
219 240 252 261 259 251 251 238 193 178 217 318 317 316 312 288 263 260 266 273 283 298 359 25 357 317 285 264 260 258 266 280 224 297 313 260 239 234 234 236 236 236 235 236 239 240 241 240 239 239 240 241 243 244 246 248 249 250 252 252 251 250 248 247 246 246 247 247 248 249 250 250 250 250 249 250 250 251 252 252 253 254 256 258 260
226 243 251 254 255 247 210 172 143 105 20 353 345 339 295 219 221 237 248 285 299 298 43 46 22 358 337 301 282 272 268 261 242 241 289 292 270 247 239 240 239 238 240 242 244 244 245 245 243 243 244 245 245 246 247 248 249 250 251 253 253 252 252 250 249 249 250 249 248 248 248 249 249 249 249 249 250 250 251 252 253 255 257 259 260
228 239 245 253 255 219 155 133 96 73 58 38 34 25 197 195 213 243 236 274 339 342 8 24 23 10 357 341 320 296 279 270 257 243 227 246 280 268 258 254 247 245 245 245 248 249 250 250 250 250 250 250 250 249 250 250 250 250 251 252 253 252 253 252 252 253 253 252 251 250 249 248 248 248 249 249 249 250 251 252 254 255 257 259 260
211 227 241 247 213 163 134 115 89 89 71 34 64 65 85 147 141 142 183 259 336 336 341 2 7 5 4 355 336 319 305 288 270 246 227 235 258 283 298 285 262 265 266 261 257 257 256 254 254 254 255 255 255 255 255 255 254 252 252 254 253 252 251 252 253 254 256 257 254 253 252 251 250 250 250 250 250 251 252 253 254 255 257 258 259
203 220 231 213 172 152 137 127 106 82 314 67 94 74 67 94 102 88 74 43 14 7 5 3 2 6 14 15 4 350 345 348 337 280 219 220 240 283 297 290 271 275 300 309 289 275 269 263 259 260 261 261 261 260 260 261 260 257 256 256 257 255 251 251 252 252 254 256 255 253 253 252 252 252 253 253 253 253 255 256 257 256 256 257 257
201 204 197 181 164 153 145 137 78 318 234 129 101 72 67 92 95 74 51 29 17 8 356 354 2 9 13 22 31 32 34 48 46 49 92 207 236 258 289 303 284 276 302 329 343 337 317 294 286 282 278 273 269 267 266 266 266 264 260 258 260 261 260 258 258 255 253 254 255 254 254 254 254 253 253 254 254 254 254 254 254 254 256 256 257
196 195 190 182 170 161 149 134 102 90 121 122 102 75 66 76 72 53 17 355 354 343 339 340 349 356 354 1 21 33 37 46 56 57 66 112 177 241 274 284 263 273 295 299 321 331 322 316 317 315 312 299 283 276 273 272 274 274 268 261 260 263 267 268 268 265 263 262 262 260 258 259 259 258 257 256 255 254 252 251 251 252 253 255 256
193 186 184 179 172 172 162 143 119 104 109 107 106 121 34 350 355 353 336 343 341 324 330 329 328 333 338 343 351 7 21 25 37 43 42 61 159 235 261 283 269 274 285 275 290 300 289 295 303 303 312 331 322 303 292 286 288 292 282 271 270 272 273 275 273 271 272 272 270 267 264 264 265 265 262 257 255 256 255 254 256 256 255 256 257
189 181 182 180 174 177 174 160 136 105 114 135 131 164 271 328 345 345 341 350 344 330 329 326 325 329 332 338 339 344 3 10 15 20 13 2 348 319 287 290 289 292 295 281 281 285 284 287 293 291 277 300 335 328 316 307 306 318 305 283 289 297 293 292 288 281 278 276 273 273 273 271 269 267 263 258 255 259 262 262 262 262 261 260 259
187 186 192 194 187 189 192 194 199 154 131 136 111 106 355 11 11 7 10 0 350 349 343 334 336 341 337 336 337 337 348 358 3 7 6 4 6 2 348 322 284 284 313 305 287 289 292 287 284 290 278 296 334 331 316 308 303 316 316 293 302 315 309 311 313 303 295 286 278 277 280 280 276 272 270 266 260 261 266 269 269 268 267 264 262
200 202 203 210 210 207 202 192 188 164 137 125 98 95 94 61 40 21 15 1 345 354 354 341 339 339 333 330 331 333 341 354 7 14 16 14 16 22 24 23 16 289 275 301 290 279 291 289 277 270 268 282 311 317 310 306 302 309 311 291 289 300 302 327 331 319 318 313 302 297 295 291 283 276 273 272 268 265 267 272 275 276 273 270 265
166 162 159 167 178 180 168 145 136 134 127 124 116 108 99 64 48 38 31 22 6 0 355 344 341 339 338 339 343 348 354 1 11 16 19 19 19 27 35 39 43 45 39 269 279 296 315 314 301 288 297 304 305 308 311 310 303 303 301 273 247 242 280 314 320 318 319 320 319 319 316 311 300 287 278 275 275 273 270 272 276 276 274 274 271
134 132 130 132 140 145 142 132 125 124 119 120 116 96 82 60 49 46 36 25 18 14 9 6 7 2 357 357 360 4 4 1 3 8 14 20 22 28 32 36 43 43 42 59 288 331 358 357 349 349 357 359 356 348 348 356 357 347 344 335 322 320 314 310 314 315 314 314 314 313 312 312 309 303 294 285 281 278 274 273 275 275 272 272 273
135 135 129 123 125 127 127 123 121 124 120 111 102 83 71 52 39 32 17 3 0 10 19 24 24 17 8 3 360 1 1 357 359 3 9 14 17 24 27 29 37 36 33 48 56 329 354 4 0 360 2 5 16 22 13 3 357 353 353 350 343 337 328 319 319 319 316 314 313 313 312 310 307 305 304 300 293 289 283 277 275 275 272 271 272
143 142 132 121 119 120 120 117 117 122 120 109 100 76 58 46 34 26 14 356 339 350 12 21 21 17 10 3 357 353 352 352 356 0 2 4 6 12 15 16 23 25 22 32 35 331 336 344 345 348 349 349 355 2 358 350 344 341 339 337 336 334 330 326 323 320 317 311 310 311 311 309 308 306 304 303 300 297 294 289 283 278 275 273 273
139 135 128 120 118 121 117 112 113 113 109 106 87 56 55 54 40 30 22 8 344 332 344 358 8 12 7 1 356 351 348 345 345 349 352 353 353 356 0 1 7 12 10 12 14 347 328 333 334 333 334 337 339 339 340 339 338 336 333 330 328 324 323 324 321 315 309 304 302 304 306 307 308 310 309 306 300 294 292 292 290 287 282 276 274
128 121 116 109 107 113 113 108 107 99 96 100 75 55 62 54 39 33 27 19 3 337 323 332 347 357 1 1 355 351 347 340 336 335 338 342 341 342 347 351 355 356 355 354 353 342 323 326 331 329 327 328 328 326 326 326 326 327 328 330 329 326 323 323 323 318 314 308 301 298 303 305 304 306 310 313 308 297 291 290 288 288 288 282 275
120 106 94 85 86 101 112 111 102 90 103 104 77 66 64 47 39 35 22 11 2 341 321 319 326 339 354 356 346 344 342 334 330 327 326 328 330 332 335 340 343 342 340 338 332 326 316 311 319 325 324 322 320 321 322 322 321 322 322 324 326 329 330 330 328 325 322 321 315 308 306 305 302 301 301 307 312 305 293 292 290 289 291 289 279
109 95 88 87 92 108 117 116 103 91 103 107 89 84 66 48 39 26 9 356 347 338 329 325 323 330 343 343 336 335 333 326 323 322 320 316 315 321 327 328 328 325 321 318 312 308 306 305 307 313 316 315 314 317 321 323 324 326 325 324 323 325 327 327 324 324 327 329 328 322 316 313 311 308 301 301 308 310 301 293 291 291 292 293 288
111 103 94 91 105 124 124 119 104 92 109 132 112 88 64 48 34 12 1 353 343 339 340 340 337 333 335 336 331 326 321 318 317 317 320 315 309 315 319 315 314 311 307 305 303 298 298 302 303 304 307 308 307 311 317 320 321 323 323 321 318 319 322 322 320 321 324 328 329 326 324 323 321 318 311 304 304 309 311 308 301 296 293 293 292
127 118 91 86 110 123 122 112 93 94 135 141 113 87 63 45 29 14 7 0 353 353 354 353 354 349 342 340 338 331 322 316 312 311 314 313 307 310 313 307 303 299 296 295 294 291 293 299 302 301 302 303 302 304 309 312 312 313 314 312 311 315 318 318 318 318 317 317 317 319 323 325 317 309 310 310 307 307 310 313 311 306 301 298 294
158 151 93 109 131 125 110 89 82 120 151 143 118 88 64 42 29 22 18 15 12 9 3 359 357 351 344 340 341 340 331 321 315 313 315 317 316 318 319 315 309 303 298 294 293 294 297 299 298 297 296 297 297 299 304 306 304 306 307 303 303 309 310 310 312 313 312 311 310 311 313 312 309 308 309 310 310 311 310 309 309 305 302 301 299
190 190 145 144 151 142 126 87 108 146 148 136 113 86 60 42 33 27 18 13 12 6 0 356 351 348 346 343 343 344 338 329 325 323 320 318 321 329 335 334 332 326 313 303 298 297 298 296 294 294 292 291 293 297 300 299 297 299 301 298 299 302 304 305 306 308 310 310 306 305 305 306 311 315 316 314 310 310 311 309 308 305 299 297 296
209 207 191 178 171 164 162 159 152 152 144 127 111 96 71 47 33 22 11 2 354 354 357 356 350 347 345 342 341 340 337 334 332 328 322 316 318 329 335 338 340 337 327 315 306 301 298 291 288 289 286 283 289 293 293 294 296 296 296 296 298 301 306 308 307 308 311 309 305 308 309 310 313 314 315 314 310 309 310 308 308 308 302 294 289
215 207 199 186 183 191 232 206 168 158 144 119 101 82 65 46 27 16 10 5 353 346 352 354 350 346 340 335 333 331 332 334 330 326 322 316 314 319 323 327 331 330 328 320 312 307 300 291 287 285 280 280 286 290 289 290 292 291 292 295 298 304 309 308 304 305 307 305 311 316 313 311 314 314 313 313 312 311 309 303 301 304 302 293 284
114 125 128 162 189 259 249 186 172 158 132 104 89 62 49 38 22 14 14 14 13 8 2 357 352 345 338 333 331 332 337 337 327 321 319 316 317 322 324 326 326 323 320 313 306 300 294 291 289 285 282 284 288 290 290 289 290 292 295 297 299 302 302 295 291 292 296 303 311 312 308 306 310 311 310 311 313 312 309 302 297 300 301 294 283
112 104 74 65 69 83 152 168 165 146 112 101 85 52 39 29 17 11 11 16 22 23 15 5 355 346 341 339 338 342 346 341 327 320 323 324 325 328 328 329 328 324 319 311 302 294 287 288 289 289 290 292 292 292 293 292 295 298 298 296 295 293 288 284 285 288 292 298 303 302 297 297 300 302 303 307 312 312 311 307 303 303 302 296 287
97 62 45 77 105 114 134 149 148 126 102 104 73 42 27 17 8 6 8 11 14 14 10 4 355 347 345 344 344 346 347 342 332 327 331 331 329 329 330 330 329 326 322 314 304 294 285 283 287 290 293 293 292 292 291 292 294 294 293 290 289 286 282 281 283 286 289 292 292 289 286 287 290 290 293 302 310 311 309 308 306 305 302 295 290
65 48 64 105 119 118 121 126 121 95 94 89 40 19 12 6 2 2 3 3 2 1 357 355 351 345 343 343 344 343 342 337 331 329 331 328 324 326 328 327 324 322 322 319 310 298 288 280 282 287 292 293 293 291 290 290 290 289 288 289 288 287 286 286 286 286 287 289 284 271 266 277 283 279 285 300 311 311 307 307 308 308 304 296 292
64 81 96 102 102 101 99 94 81 71 67 35 8 1 2 3 357 354 355 355 356 352 348 347 347 345 343 343 341 338 335 330 326 326 326 322 318 320 321 321 319 317 319 321 312 298 289 283 285 289 295 301 301 297 294 291 287 287 289 288 288 286 283 284 285 283 283 288 283 262 255 269 279 282 292 304 312 312 310 309 308 310 307 300 295
90 98 98 92 85 75 65 59 59 54 31 6 358 351 354 359 352 351 354 353 350 346 344 347 348 347 346 344 340 335 330 326 322 320 320 317 315 315 315 316 316 314 317 323 315 305 301 296 294 297 302 308 307 302 300 295 291 292 288 282 283 282 278 278 282 281 283 289 286 265 255 265 279 290 300 306 309 310 313 312 307 308 311 308 307
100 90 81 80 71 55 50 49 38 24 7 357 351 335 344 355 356 356 353 349 347 347 348 350 351 350 349 348 345 337 325 321 319 316 314 312 309 309 311 314 315 314 316 320 315 313 312 307 305 307 310 313 308 302 302 301 299 295 282 277 281 280 274 272 279 284 288 292 292 273 255 263 278 290 303 311 311 310 314 309 300 306 319 323 321
87 67 61 71 67 53 47 39 19 10 3 355 333 316 347 358 357 355 351 349 351 353 353 353 353 355 355 353 351 345 334 329 325 320 316 312 309 311 315 315 312 314 319 318 312 312 314 312 312 313 314 315 312 306 307 307 306 298 283 278 280 275 267 266 273 281 288 299 305 282 248 262 282 293 304 317 317 316 317 304 298 306 315 319 319